Stations météo

réclame
Mon MeteoGroup
K14A, Pays-Bas (6204): Température de l'air & dewpoint: 08.12.2019 12:00:00 - 14.12.2019 12:00:00 (CET)K14A, Pays-Bas (6204): Vitesse du vent & gusts: 08.12.2019 12:00:00 - 14.12.2019 12:00:00 (CET)K14A, Pays-Bas (6204): Direction du vent: 08.12.2019 12:00:00 - 14.12.2019 12:00:00 (CET)K14A, Pays-Bas (6204): reduced air pressure: 08.12.2019 12:00:00 - 14.12.2019 12:00:00 (CET)K14A, Pays-Bas (6204): visibility: 08.12.2019 12:00:00 - 14.12.2019 12:00:00 (CET)
Date & Time tt [°C] td [°C] ff [km/h] ff [knt] fx [km/h] fx [knt] dd ppp [hPa] vv [km]
14.12.2019 12:00:00 7,2 1,4 76 41 83 45 W 985,1 10
14.12.2019 11:00:00 7,2 2,2 81 44 86 47 W 984,6 10
14.12.2019 10:00:00 7,3 2,8 80 43 79 43 W 983,5 10
14.12.2019 09:00:00 7,5 3,3 78 42 83 45 W 982,4 10
14.12.2019 08:00:00 7,5 3,4 76 41 76 41 W 981,2 10
14.12.2019 07:00:00 7,4 2,7 68 37 72 39 W 980,2 10
14.12.2019 06:00:00 7,6 3,1 63 34 68 37 W 979,6 10
14.12.2019 05:00:00 7,7 3,1 59 32 61 33 W 979,1 10
14.12.2019 04:00:00 7,7 3,3 54 29 54 29 WSW 978,6 10
14.12.2019 03:00:00 6,9 3,6 57 31 58 31 W 978,5 10
14.12.2019 02:00:00 6,9 2,9 57 31 61 33 WSW 978,7 9
14.12.2019 01:00:00 7,5 3,7 59 32 58 31 WSW 978,9 10
14.12.2019 00:00:00 7,7 3,3 48 26 58 31 WSW 978,9 10
13.12.2019 23:00:00 7,9 3,9 61 33 65 35 WSW 979,1 10
13.12.2019 22:00:00 7,7 5,0 54 29 61 33 WSW 979,4 7
13.12.2019 21:00:00 8,3 5,2 57 31 61 33 WSW 979,6 10
13.12.2019 20:00:00 8,2 4,5 50 27 65 35 WSW 980,1 10
13.12.2019 19:00:00 8,6 4,4 63 34 61 33 W 980,0 10
13.12.2019 18:00:00 8,5 4,9 55 30 54 29 W 979,8 10
13.12.2019 17:00:00 8,3 4,9 52 28 54 29 W 979,5 10
13.12.2019 16:00:00 8,3 4,7 48 26 47 25 W 979,0 10
13.12.2019 15:00:00 8,1 3,8 28 15 40 21 W 977,9 10
13.12.2019 14:00:00 8,0 4,7 31 17 36 19 W 977,3 10
13.12.2019 13:00:00 8,2 4,2 31 17 36 19 - 976,7 10
13.12.2019 12:00:00 8,0 6,7 18 10 22 12 S 976,0 10
13.12.2019 11:00:00 7,9 6,4 18 10 22 12 S 975,1 10
13.12.2019 10:00:00 7,7 6,6 21 11 25 14 SSE 974,1 7
13.12.2019 09:00:00 7,9 6,2 22 12 29 16 SSE 973,0 10
13.12.2019 08:00:00 8,0 6,4 29 16 32 18 SSE 972,1 10
13.12.2019 07:00:00 8,3 6,7 34 18 36 19 S 971,6 10
13.12.2019 06:00:00 8,4 6,9 42 23 43 23 S 971,2 10
13.12.2019 05:00:00 7,7 5,4 41 22 43 23 - 971,5 10
13.12.2019 04:00:00 9,0 6,7 41 22 43 23 - 971,5 10
13.12.2019 03:00:00 8,8 6,6 44 24 68 37 - 971,1 10
13.12.2019 02:00:00 7,5 6,3 58 31 72 39 SSE 970,5 8
13.12.2019 01:00:00 6,6 4,9 68 37 76 41 SSE 972,7 10
13.12.2019 00:00:00 6,8 4,3 65 35 68 37 SSE 975,0 10
12.12.2019 23:00:00 6,9 5,0 63 34 68 37 SSE 977,0 10
12.12.2019 22:00:00 7,4 5,5 67 36 72 39 S 978,9 10
12.12.2019 21:00:00 7,0 5,4 70 38 72 39 S 980,8 10
12.12.2019 20:00:00 7,3 5,2 68 37 68 37 S 982,6 10
12.12.2019 19:00:00 7,5 4,8 63 34 72 39 S 984,1 10
12.12.2019 18:00:00 6,9 4,6 59 32 65 35 S 985,6 10
12.12.2019 17:00:00 7,5 4,7 59 32 58 31 S 987,2 10
12.12.2019 16:00:00 7,7 3,7 55 30 54 29 S 989,5 10
12.12.2019 15:00:00 8,1 3,0 57 31 58 31 S 991,0 10
12.12.2019 14:00:00 8,0 3,4 50 27 58 31 S 992,4 10
12.12.2019 13:00:00 8,1 1,5 48 26 50 27 - 994,3 10
12.12.2019 12:00:00 7,6 0,9 46 25 47 25 - 995,7 10
12.12.2019 11:00:00 7,0 0,6 41 22 47 25 - 997,1 10
12.12.2019 10:00:00 6,9 0,9 35 19 40 21 - 997,7 10
12.12.2019 09:00:00 6,5 0,6 34 18 32 18 - 998,5 10
12.12.2019 08:00:00 6,4 1,8 31 17 36 19 WSW 998,8 10
12.12.2019 07:00:00 6,5 2,0 34 18 36 19 WSW 999,1 10
12.12.2019 06:00:00 6,5 2,5 35 19 40 21 W 999,2 10
12.12.2019 05:00:00 6,8 1,5 35 19 40 21 W 999,3 10
12.12.2019 04:00:00 7,2 2,6 37 20 40 21 W 999,5 10
12.12.2019 03:00:00 7,2 3,1 22 12 40 21 - 999,5 10
12.12.2019 02:00:00 7,0 3,4 24 13 32 18 - 999,2 10
12.12.2019 01:00:00 7,2 3,9 24 13 40 21 - 999,4 10
12.12.2019 00:00:00 6,7 4,5 21 11 32 18 - 999,7 10
11.12.2019 23:00:00 7,4 4,1 35 19 36 19 S 999,9 10
11.12.2019 22:00:00 7,3 3,6 52 28 50 27 - 1000,4 10
11.12.2019 21:00:00 7,8 3,3 42 23 54 29 - 1000,5 10
11.12.2019 20:00:00 9,3 3,6 37 20 40 21 - 1000,8 10
11.12.2019 19:00:00 9,0 3,3 42 23 43 23 - 1001,4 10
11.12.2019 18:00:00 8,9 3,4 37 20 40 21 - 1001,6 10
11.12.2019 17:00:00 8,6 3,5 35 19 36 19 - 1002,0 10
11.12.2019 16:00:00 8,4 2,7 34 18 36 19 - 1002,5 10
11.12.2019 15:00:00 8,4 3,3 37 20 36 19 - 1002,8 10
11.12.2019 14:00:00 8,2 3,6 35 19 36 19 - 1003,4 10
11.12.2019 13:00:00 8,1 3,2 34 18 36 19 - 1004,1 10
11.12.2019 12:00:00 7,8 4,0 31 17 32 18 - 1005,0 10
11.12.2019 11:00:00 7,8 3,9 31 17 32 18 SW 1005,6 10
11.12.2019 10:00:00 7,8 3,9 29 16 32 18 - 1006,0 10
11.12.2019 09:00:00 8,0 3,8 31 17 32 18 WSW 1005,9 10
11.12.2019 08:00:00 8,0 3,3 35 19 40 21 WSW 1005,9 10
11.12.2019 07:00:00 8,2 3,6 44 24 47 25 W 1006,1 10
11.12.2019 06:00:00 8,4 3,4 50 27 54 29 W 1006,1 10
11.12.2019 05:00:00 8,8 3,7 54 29 61 33 W 1006,0 10
11.12.2019 04:00:00 9,0 3,6 59 32 61 33 W 1005,7 10
11.12.2019 03:00:00 9,1 3,8 59 32 58 31 W 1005,5 10
11.12.2019 02:00:00 9,3 5,1 54 29 65 35 W 1004,8 10
11.12.2019 01:00:00 9,5 6,7 57 31 86 47 W 1004,0 10
11.12.2019 00:00:00 10,8 9,7 87 47 94 51 - 1002,7 7
10.12.2019 23:00:00 10,7 8,3 87 47 101 54 - 1002,2 9
10.12.2019 22:00:00 10,3 7,6 85 46 97 53 - 1002,7 9
10.12.2019 21:00:00 9,9 7,3 91 49 97 53 - 1003,3 9
10.12.2019 20:00:00 9,6 6,8 80 43 90 49 SSW 1004,6 10
10.12.2019 19:00:00 9,3 6,2 81 44 90 49 S 1005,9 10
10.12.2019 18:00:00 8,9 6,2 83 45 94 51 S 1006,7 10
10.12.2019 17:00:00 8,6 6,4 74 40 86 47 SSW 1007,9 10
10.12.2019 16:00:00 8,8 6,3 74 40 83 45 S 1009,8 10
10.12.2019 15:00:00 9,1 5,7 81 44 79 43 SSW 1011,7 10
10.12.2019 14:00:00 9,3 5,3 74 40 76 41 - 1013,4 10
10.12.2019 13:00:00 9,2 5,5 68 37 72 39 - 1015,2 10
10.12.2019 12:00:00 9,1 4,8 63 34 68 37 - 1017,1 10
10.12.2019 11:00:00 9,0 2,0 61 33 61 33 - 1018,8 10
10.12.2019 10:00:00 8,5 2,6 59 32 58 31 - 1019,8 10
10.12.2019 09:00:00 8,1 1,6 50 27 50 27 - 1020,3 10
10.12.2019 08:00:00 7,8 0,2 41 22 47 25 - 1021,0 10
10.12.2019 07:00:00 7,6 1,2 35 19 40 21 - 1021,6 10
10.12.2019 06:00:00 7,5 1,4 29 16 32 18 WSW 1022,4 10
10.12.2019 05:00:00 8,0 0,4 31 17 32 18 W 1022,4 10
10.12.2019 04:00:00 7,7 0,4 18 10 32 18 - 1022,6 10
10.12.2019 03:00:00 7,8 -0,3 29 16 36 19 - 1022,3 10
10.12.2019 02:00:00 7,0 3,1 35 19 40 21 - 1022,1 10
10.12.2019 01:00:00 7,6 0,5 31 17 43 23 - 1021,6 10
10.12.2019 00:00:00 7,8 0,9 35 19 47 25 - 1020,8 10
09.12.2019 23:00:00 7,8 0,9 46 25 54 29 - 1020,0 10
09.12.2019 22:00:00 7,1 1,6 46 25 54 29 - 1018,9 10
09.12.2019 21:00:00 8,1 1,2 54 29 61 33 - 1018,3 10
09.12.2019 20:00:00 8,1 -0,9 54 29 68 37 - 1016,6 10
09.12.2019 19:00:00 8,4 0,3 52 28 58 31 - 1014,8 10
09.12.2019 18:00:00 6,5 2,9 63 34 68 37 - 1013,4 10
09.12.2019 17:00:00 8,2 0,1 63 34 68 37 - 1011,4 10
09.12.2019 16:00:00 8,2 2,1 63 34 72 39 - 1008,9 10
09.12.2019 15:00:00 8,4 2,7 68 37 72 39 W 1006,8 5
09.12.2019 14:00:00 8,8 3,2 70 38 76 41 W 1004,1 10
09.12.2019 13:00:00 8,7 4,5 65 35 83 45 N 1001,1 10
09.12.2019 12:00:00 7,7 5,2 44 24 61 33 N 998,2 7
09.12.2019 11:00:00 8,6 5,4 21 11 40 21 - 995,7 10
09.12.2019 10:00:00 8,4 5,2 37 20 50 27 WNW 994,1 10
09.12.2019 09:00:00 8,7 5,3 39 21 54 29 - 993,2 10
09.12.2019 08:00:00 8,5 5,3 41 22 47 25 - 992,1 10
09.12.2019 07:00:00 7,9 4,7 41 22 50 27 W 991,4 10
09.12.2019 06:00:00 8,0 4,4 48 26 50 27 W 990,5 10
09.12.2019 05:00:00 8,1 3,9 50 27 54 29 WSW 989,8 10
09.12.2019 04:00:00 8,4 4,5 55 30 58 31 WSW 990,1 10
09.12.2019 03:00:00 8,2 3,7 61 33 65 35 - 990,4 10
09.12.2019 02:00:00 8,5 3,8 67 36 65 35 - 990,7 10
09.12.2019 01:00:00 8,4 4,0 67 36 72 39 - 990,9 10
09.12.2019 00:00:00 8,4 3,6 70 38 68 37 - 991,4 10
08.12.2019 23:00:00 8,3 3,7 70 38 72 39 WSW 991,4 10
08.12.2019 22:00:00 8,6 3,7 67 36 72 39 WSW 992,0 10
08.12.2019 21:00:00 8,9 3,7 68 37 76 41 WSW 992,2 10
08.12.2019 20:00:00 9,3 3,6 78 42 79 43 WSW 992,5 10
08.12.2019 19:00:00 9,8 4,3 67 36 72 39 WSW 992,7 10
08.12.2019 18:00:00 9,7 4,4 68 37 76 41 WSW 993,5 10
08.12.2019 17:00:00 10,3 4,0 74 40 79 43 WSW 993,6 10
08.12.2019 16:00:00 10,3 3,9 76 41 76 41 - 994,3 10
08.12.2019 15:00:00 10,2 3,8 76 41 76 41 WSW 994,6 10
08.12.2019 14:00:00 10,1 4,3 68 37 72 39 WSW 995,6 10
08.12.2019 13:00:00 10,0 4,6 68 37 72 39 WSW 995,7 10
08.12.2019 12:00:00 10,0 5,2 72 39 72 39 WSW 995,8 10

tt = Température de l'air
td = dewpoint
ff = Vitesse du vent
fx = gusts
dd = Direction du vent
ppp = reduced air pressure
vv = visibility

stations d'obs. à proximité